Regional Weather Roundup
Issued by NWS

Home | Current Version | Previous Version | Graphics & Text | Print | Product List | Glossary On
Versions: 1 2 3 4 5 6 7 8 9 10 11 12 13 14 15 16 17 18 19 20 21 22 23 24 25 26 27 28 29 30 31 32 33 34 35 36 37 38 39 40 41 42 43 44 45 46 47 48 49 50
000
ASUS43 KDMX 261008
RWRIA

WEATHER ROUNDUP FOR IOWA
NATIONAL WEATHER SERVICE DES MOINES IA
500 AM CDT FRI AUG 26 2016

NOTE: "FAIR" INDICATES FEW OR NO CLOUDS BELOW 12,000 FEET WITH NO
SIGNIFICANT WEATHER AND/OR OBSTRUCTIONS TO VISIBILITY.

* - THESE STATIONS ARE NOT NWS STATIONS...THUS NOT UNDER NWS
QUALITY CONTROL.  THEY ALSO DO NOT REPORT WEATHER SUCH
AS PRECIPITATION OR FOG.

IAZ001>003-012>014-020>022-031>034-043>046-261100-
   NORTHWEST IOWA

CITY           SKY/WX    TMP DP  RH WIND       PRES   REMARKS
CARROLL *        N/A     55  55 100 NW3       30.16S
CHEROKEE *       N/A     55  55 100 CALM      30.16S
DENISON *        N/A     55  55 100 CALM      30.15R FOG
LE MARS *        N/A     54  54 100 CALM      30.16F
ORANGE CITY *    N/A     57  55  94 E6        30.16S
SHELDON *        N/A     50  50 100 CALM      30.16S
SIOUX CITY       N/A     54  52  93 W3        30.16R FOG
SPENCER        FOG       51  49  92 CALM      30.17S VSB 3/4
STORM LAKE *     N/A     57  55  94 E6        30.17S
$$

IAZ055>058-069>071-079>083-090>094-261100-
   SOUTHWEST IOWA

CITY           SKY/WX    TMP DP  RH WIND       PRES   REMARKS
ATLANTIC *       N/A     55  55 100 N3        30.15S
AUDUBON *        N/A     57  55  94 CALM      30.17S
CLARINDA *       N/A     61  61 100 MISG      30.15F
COUNCIL BLFS *   N/A     59  57  94 N6        30.15S
CRESTON *        N/A     61  61 100 NE8       30.16S
HARLAN  *        N/A     57  57 100 CALM      30.19S
LAMONI         CLOUDY    64  63  96 NE6       30.13F
RED OAK *        N/A     61  59  94 NE5       30.15R
SHENANDOAH *   FOG       59 N/A N/A NE5       30.14S VSB 1/2
$$

IAZ047>049-059>061-072>074-084-261100-
   CENTRAL IOWA

CITY           SKY/WX    TMP DP  RH WIND       PRES   REMARKS
AMES             N/A     59  59 100 CALM      30.16R
ANKENY *         N/A    N/A N/A N/A MISG        N/A
BOONE *          N/A     59  57  94 NE5       30.15S
CHARITON *       N/A     61  61 100 MISG      30.14S
DES MOINES     CLOUDY    65  60  84 N7        30.14R
GRINNELL*        N/A     62  60  92 N6        30.15S
KNOXVILLE *      N/A     61  61 100 NW3       30.13R
MARSHALLTOWN     N/A     59  58  96 NE5       30.15R
NEWTON *         N/A     61  61 100 N7        30.14S
PELLA *          N/A     60  60  97 CALM      30.14S FOG
PERRY *          N/A     58  58  99 N5        30.16S
$$

IAZ004>006-015-016-023>025-035-036-261100-
   NORTH CENTRAL IOWA

CITY           SKY/WX    TMP DP  RH WIND       PRES   REMARKS
ALGONA *         N/A     55  55 100 CALM      30.16F
ESTHERVILLE      N/A     50  50 100 NW3       30.17R
FORT DODGE *     N/A     57  54  88 CALM      30.17R
MASON CITY       N/A     53  53 100 CALM      30.18S
FOREST CITY *    N/A    N/A N/A N/A MISG        N/A
WEBSTER CITY *   N/A     55  55 100 SE5       30.15R
IOWA FALLS *     N/A     59  57  94 NE3       30.18R
$$

IAZ007>011-017>019-026>030-037>042-050>054-066-261100-
   NORTHEAST IOWA

CITY           SKY/WX    TMP DP  RH WIND       PRES   REMARKS
CEDAR RAPIDS     N/A     60  60 100 N7        30.14R
CHARLES CITY *   N/A     55  55 100 CALM      30.17R
CLINTON *        N/A     61  60  97 N5        30.14S
DECORAH *        N/A     55  55 100 CALM      30.16R
DUBUQUE          N/A     61  58  90 N8        30.16R
MONTICELLO *   FOG       57  57 100 CALM      30.15R VSB 3/4
OELWEIN *        N/A     59  57  94 N6        30.17S
WATERLOO         N/A     56  55  97 N6        30.15S
$$

IAZ064-065-067-068-078-261100-
   EAST CENTRAL IOWA

CITY           SKY/WX    TMP DP  RH WIND       PRES   REMARKS
DAVENPORT        N/A     62  60  93 N6        30.13S
IOWA CITY        N/A     65  61  87 NE3       30.14S
MT. PLEASANT * CLOUDY    67  67 100 N3        30.13S
MUSCATINE *    MOCLDY    64  63  94 NE3       30.13S
QUAD CITIES    MOCLDY    65  62  90 CALM      30.12S
$$

IAZ062-063-075>077-085>089-095>099-261100-
   SOUTHEAST IOWA

CITY           SKY/WX    TMP DP  RH WIND       PRES   REMARKS
BURLINGTON     CLOUDY    69  65  86 NE6       30.12R
FAIRFIELD *    CLOUDY    64  63  94 N5        30.13S
FORT MADISON *   N/A     66  64  94 N3        30.13S
KEOKUK *       LGT RAIN  68  66  94 NE5       30.11S
OSKALOOSA *    MOCLDY    62  62  99 CALM      30.14R
CENTERVILLE *  LGT RAIN  64  64 100 SW15G21   30.20R
OTTUMWA        MOCLDY    64  61  90 CALM      30.13S
WASHINGTON *     N/A     64  63  94 N3        30.15R
$$

ABBREVIATIONS USED IN REMARKS
   TC - TEMPERATURES IN CELSIUS
  WCI - WIND CHILL INDEX
   HX - HEAT INDEX
  VSB - VISIBILITY
$$




USA.gov is the U.S. government's official web portal to all federal, state and local government web resources and services.